Date,TemperatureHighF,TemperatureAvgF,TemperatureLowF,DewpointHighF,DewpointAvgF,DewpointLowF,HumidityHigh,HumidityAvg,HumidityLow,PressureMaxIn,PressureMinIn,WindSpeedMaxMPH,WindSpeedAvgMPH,GustSpeedMaxMPH,PrecipitationSumIn
2013-1-1,32.7,31.5,24.3,32.7,31.5,24.3,100,100,99,30.16,30.04,12,1,17,0.04
2013-1-2,27.3,20.8,12.7,24.3,17.0,12.7,100,87,58,30.24,30.16,0,0,0,0.00
2013-1-3,33.8,20.0,9.0,29.5,17.9,9.0,100,92,75,30.33,30.19,20,2,27,0.00
2013-1-4,33.3,28.1,21.0,29.1,24.3,19.5,100,86,71,30.39,30.30,25,4,32,0.00
2013-1-5,38.8,28.1,15.3,33.6,25.9,15.3,100,93,68,30.33,30.16,14,2,18,0.08
2013-1-6,36.7,35.1,31.1,36.7,33.8,26.1,100,95,80,30.22,30.04,32,8,41,0.08
2013-1-8,46.8,38.2,31.3,35.0,33.2,29.9,100,84,63,30.22,30.19,10,1,13,0.00
2013-1-9,54.0,42.2,32.7,49.3,40.4,32.7,100,94,65,30.48,30.19,17,3,22,0.08
2013-1-10,46.4,38.9,32.2,46.4,38.9,32.2,100,100,100,30.48,30.01,14,3,17,0.35
2013-1-11,60.3,52.9,45.1,57.7,52.1,45.1,100,98,78,30.01,29.86,22,5,28,0.91
2013-1-12,65.1,59.2,51.1,65.1,59.2,50.9,100,100,94,29.98,29.71,28,6,36,0.79
2013-1-13,66.2,41.6,26.1,65.8,41.6,26.1,100,100,100,30.22,29.65,42,7,54,1.89
2013-1-14,27.5,24.0,20.7,26.2,22.9,20.7,100,96,80,30.42,30.22,0,0,0,0.79
2013-1-15,31.1,26.4,20.3,28.8,24.6,20.3,100,93,82,30.33,30.07,18,4,27,0.79
2013-1-16,34.9,31.8,30.2,31.1,28.7,24.5,100,89,66,30.10,30.01,17,4,22,0.00
2013-1-17,44.2,33.6,26.6,36.9,29.0,23.4,100,84,63,30.42,30.10,25,4,32,0.00
2013-1-18,41.9,26.3,19.0,29.7,23.7,19.0,100,91,54,30.51,30.22,20,3,27,0.00
2013-1-19,54.5,46.5,38.8,38.3,32.0,25.8,70,57,48,30.22,29.92,38,10,49,0.00
2013-1-20,48.0,38.4,25.7,41.4,26.7,13.6,82,63,49,30.24,29.98,33,11,42,0.00
2013-1-21,25.9,22.5,13.3,20.8,15.8,2.8,92,75,56,30.27,30.16,32,10,41,0.00
2013-1-22,18.5,12.0,7.0,5.9,1.3,-3.0,63,62,58,30.39,30.33,25,6,32,0.00
2013-1-23,34.2,22.3,11.8,22.1,11.9,1.6,82,64,54,30.36,30.10,26,3,36,0.00
2013-1-24,29.1,22.0,16.0,21.6,14.2,8.5,95,72,53,30.54,30.13,30,8,38,0.00
2013-1-25,28.6,23.5,20.8,27.1,18.5,8.3,100,83,54,30.33,30.07,17,5,21,0.00
2013-1-26,34.7,26.3,19.9,23.5,20.7,16.9,100,81,56,30.39,30.13,14,3,21,0.00
2013-1-27,42.3,29.3,21.0,42.1,25.5,17.8,100,86,68,30.39,30.07,18,5,23,0.20
2013-1-28,56.3,51.7,42.3,56.3,51.2,42.3,100,98,82,30.10,30.01,37,8,47,0.12
2013-1-29,66.2,58.6,53.6,66.0,58.6,53.6,100,100,95,30.01,29.48,42,10,54,0.00
2013-1-30,67.5,53.3,28.9,66.9,52.4,25.4,100,97,71,29.71,29.33,47,15,60,1.26
2013-1-31,32.4,25.9,12.0,28.8,20.8,7.0,100,81,66,30.16,29.71,40,10,51,0.39
2013-2-1,18.5,12.3,5.9,11.3,6.5,1.0,82,77,68,30.45,30.16,0,0,0,0.00
2013-2-2,31.3,25.7,15.6,30.7,23.7,11.0,100,92,68,30.27,30.01,22,2,28,0.39
2013-2-3,28.6,22.6,17.6,27.5,20.8,15.3,100,93,75,30.13,29.95,30,4,44,0.00
2013-2-4,39.4,29.2,15.4,37.9,27.5,15.4,100,94,68,30.10,29.80,21,4,27,0.20
2013-2-5,43.5,35.1,24.4,38.8,33.3,24.4,100,94,73,30.04,29.86,20,4,26,0.04
2013-2-6,38.7,34.9,31.3,36.7,33.3,29.9,100,94,80,30.25,30.04,14,5,23,0.00
2013-2-7,62.8,45.2,30.7,52.9,39.2,30.7,100,83,44,30.16,29.80,18,3,23,0.20
2013-2-8,51.6,36.1,33.1,51.1,35.1,29.1,100,96,85,30.33,29.83,28,8,38,0.12
2013-2-9,43.0,34.2,23.5,32.0,28.2,23.5,100,80,60,30.36,30.13,16,4,20,0.00
2013-2-10,52.0,42.1,34.7,52.0,37.8,26.4,100,85,68,30.13,29.74,29,4,37,0.20
2013-2-11,54.5,45.6,37.8,54.5,36.2,29.4,100,70,54,30.07,29.74,38,10,50,0.20
2013-2-12,49.8,38.7,28.8,34.0,30.5,26.2,100,74,48,30.13,29.89,16,3,22,0.20
2013-2-13,43.0,35.4,33.6,37.4,34.1,29.9,100,95,60,29.89,29.80,17,3,21,0.04
2013-2-14,54.7,42.3,33.1,41.8,36.9,31.8,100,83,51,30.01,29.83,26,8,32,0.00
2013-2-15,39.7,33.7,26.1,35.8,28.1,18.6,100,81,54,30.16,29.98,30,7,40,0.00
2013-2-16,26.1,24.0,21.6,20.2,18.1,12.7,94,79,58,30.16,30.10,28,7,35,0.00
2013-2-17,36.3,25.5,16.2,20.3,17.2,14.6,100,72,51,30.22,30.10,17,3,21,0.00
2013-2-18,60.3,38.9,27.7,48.0,29.0,17.5,100,68,42,30.13,29.65,40,8,53,0.24
2013-2-19,47.1,31.3,24.1,47.1,26.2,16.2,100,81,70,30.19,29.65,41,14,53,0.12
2013-2-20,28.4,22.7,16.9,17.8,14.6,11.5,83,71,60,30.33,30.19,28,8,37,0.00
2013-2-21,33.6,25.9,18.0,31.6,23.2,16.8,100,90,70,30.30,29.92,25,8,36,0.00
2013-2-22,40.5,34.4,31.6,39.7,34.3,31.2,100,99,88,30.01,29.80,22,2,28,0.28
2013-2-23,42.8,33.1,25.0,31.6,26.7,23.2,100,79,54,30.01,29.92,19,6,26,0.12
2013-2-24,45.5,32.4,21.2,30.5,26.9,21.0,100,82,53,30.13,29.98,12,3,16,0.12
2013-2-25,47.5,32.8,26.1,32.4,28.5,26.1,100,87,51,30.10,29.77,29,4,37,0.00
2013-2-26,45.5,41.1,37.4,45.3,38.8,28.2,100,92,61,29.77,29.36,26,8,37,0.79
2013-2-27,40.6,36.0,33.3,40.6,35.6,32.7,100,99,87,29.77,29.54,24,7,32,0.00
2013-2-28,38.5,34.8,32.4,38.3,34.8,32.4,100,100,97,29.98,29.74,26,9,33,0.04
2013-3-1,35.4,33.5,31.5,35.4,33.5,31.5,100,100,100,30.04,29.95,15,3,22,0.12
2013-3-2,32.2,30.4,28.4,32.2,29.5,22.2,100,97,70,30.10,30.01,0,0,0,0.00
2013-3-3,36.5,29.1,22.3,28.4,22.6,16.1,100,79,53,30.13,30.04,20,2,26,0.00
2013-3-4,41.0,27.8,19.9,31.3,22.4,18.7,100,82,53,30.10,0.00,21,3,27,7.55
2013-3-5,40.3,37.7,28.8,39.9,31.7,28.8,100,80,66,29.89,29.62,44,8,62,0.16
2013-3-6,32.5,30.8,29.1,32.5,30.8,29.1,100,100,100,30.27,29.77,31,11,43,0.00
2013-3-7,36.7,31.1,28.9,34.9,30.4,28.9,100,97,75,30.36,30.27,14,5,18,0.16
2013-3-8,47.3,36.9,26.1,36.5,30.7,26.1,100,80,54,30.45,30.30,18,4,25,0.00
2013-3-9,59.2,45.6,30.6,39.7,34.9,28.5,100,69,44,30.30,29.98,25,5,32,0.00
2013-3-10,68.0,58.6,52.7,53.2,40.4,35.8,94,52,37,29.98,29.74,32,11,45,0.00
2013-3-11,55.0,46.1,35.6,54.7,44.0,32.4,100,93,71,29.92,29.65,32,10,40,0.00
2013-3-12,48.7,40.1,34.2,35.3,29.9,25.8,97,68,49,30.07,29.92,29,11,38,0.00
2013-3-13,38.3,29.8,23.9,31.8,23.2,18.3,100,76,68,30.33,30.07,31,10,40,0.00
2013-3-14,44.1,30.2,19.4,35.8,24.3,18.5,100,81,49,30.36,30.16,21,3,27,0.00
2013-3-15,60.1,44.1,27.1,46.7,38.7,26.1,100,83,53,30.16,29.65,13,2,17,0.08
2013-3-16,65.3,58.4,39.7,52.4,48.0,37.2,94,69,58,30.01,29.62,29,10,37,0.00
2013-3-17,39.9,35.7,33.1,38.5,35.4,33.1,100,99,92,30.10,29.86,26,8,35,0.98
2013-3-18,48.2,39.7,35.1,48.2,39.7,35.1,100,100,100,29.89,29.62,28,6,38,0.79
2013-3-19,46.6,36.3,28.6,27.8,24.3,20.2,92,63,46,30.13,29.95,14,14,17,0.79
2013-3-20,36.0,30.2,25.3,24.5,19.8,13.6,90,65,54,30.13,30.04,14,14,17,0.79
2013-3-21,34.2,24.4,19.2,18.7,14.3,11.1,83,65,53,30.07,29.98,14,14,17,0.00
2013-3-22,44.4,37.8,17.1,29.6,23.7,15.5,99,58,48,30.07,29.98,14,14,17,0.79
2013-3-23,37.9,36.6,36.1,28.5,25.8,22.6,73,65,54,30.01,29.98,14,14,17,0.00
2013-3-24,37.9,36.0,32.5,37.9,36.0,32.5,100,100,100,29.48,29.42,0,0,0,0.04
2013-3-25,33.3,31.3,29.5,33.3,31.3,29.5,100,100,100,30.01,29.45,0,0,0,0.00
2013-3-26,40.5,34.4,30.7,35.4,31.1,24.4,100,89,58,30.27,30.01,0,0,0,0.28
2013-3-27,45.5,36.0,25.2,32.2,27.8,25.2,100,74,51,30.33,30.24,0,0,0,0.00
2013-3-28,53.1,39.0,24.4,33.6,28.9,24.3,100,70,46,30.36,30.24,0,0,0,0.28
2013-3-29,59.0,43.9,28.6,44.0,35.3,27.6,100,75,44,30.30,30.16,0,0,0,0.28
2013-3-30,60.1,49.9,29.5,48.9,39.5,29.5,100,71,42,30.22,29.83,17,3,21,3.27
2013-3-31,62.1,52.1,47.1,53.8,47.2,41.7,100,85,51,29.89,29.80,26,5,33,3.27
2013-4-1,53.2,44.3,37.0,45.5,30.5,21.3,82,59,44,30.13,29.83,26,8,37,3.03
2013-4-2,49.5,41.4,25.7,28.6,24.0,18.3,87,51,37,30.28,30.13,20,6,28,3.03
2013-4-3,48.9,38.5,25.2,29.5,25.7,19.5,92,63,44,30.37,30.25,22,6,32,0.00
2013-4-4,58.6,42.8,34.9,35.9,26.8,21.7,68,53,41,30.28,29.98,18,5,23,0.00
2013-4-5,62.8,45.0,30.6,39.7,31.8,25.9,92,63,36,30.13,29.98,20,3,26,0.00
2013-4-6,73.0,60.0,40.3,45.5,40.0,32.0,76,49,36,30.13,29.86,32,8,40,0.00
2013-4-7,75.0,63.6,57.2,61.1,45.4,39.5,100,53,39,29.95,29.83,28,8,36,0.94
2013-4-8,73.4,66.0,53.1,61.0,57.5,53.1,100,76,56,29.95,29.86,28,7,36,0.00
2013-4-9,79.7,68.0,54.5,67.3,59.9,54.5,100,78,46,30.01,29.89,35,6,44,0.00
2013-4-10,82.9,68.8,61.7,69.1,63.6,59.9,100,86,51,29.92,29.72,28,4,36,0.00
2013-4-11,74.3,62.8,50.5,66.0,60.9,50.4,100,95,56,29.78,29.51,32,7,41,1.14
2013-4-12,51.3,43.7,38.7,51.3,41.1,35.1,100,91,63,29.95,29.63,38,9,48,0.00
2013-4-13,60.3,47.2,33.8,41.1,37.3,33.8,100,72,42,30.01,29.95,34,6,43,0.00
2013-4-14,73.2,57.1,39.9,50.4,44.5,38.3,100,68,37,30.01,29.80,24,5,30,0.00
2013-4-15,72.3,63.5,57.0,58.9,55.1,48.0,94,75,60,29.98,29.86,19,6,24,0.00
2013-4-16,77.9,65.0,54.9,72.6,63.1,54.7,100,94,71,30.13,29.89,25,6,32,0.67
2013-4-17,77.7,63.4,55.9,76.8,63.3,55.9,100,100,88,30.13,29.89,28,5,35,1.34
2013-4-18,81.3,71.7,63.9,72.3,64.4,57.5,100,81,53,29.89,29.60,29,8,37,0.12
2013-4-19,64.9,43.7,38.8,64.9,39.2,32.0,100,85,66,30.04,29.60,29,9,37,0.83
2013-4-20,53.4,43.0,34.0,38.8,33.1,28.2,100,72,46,30.37,30.01,22,5,29,0.00
2013-4-21,58.1,46.6,35.1,38.3,34.1,30.4,90,64,42,30.48,30.31,20,5,26,0.00
2013-4-22,70.0,54.3,36.1,47.6,41.9,36.1,100,68,39,30.34,30.07,14,3,18,0.00
2013-4-23,66.9,59.2,48.7,64.2,53.6,45.3,100,82,63,30.10,29.80,26,4,32,0.04
2013-4-24,67.1,47.2,36.7,62.6,44.8,34.8,100,92,66,30.25,29.80,26,7,33,0.59
2013-4-25,60.4,43.9,31.8,44.6,37.3,30.1,100,81,42,30.37,30.22,34,5,43,0.00
2013-4-26,63.7,50.1,34.3,50.2,39.0,33.7,100,70,42,30.42,30.31,14,3,18,0.00
2013-4-27,60.1,53.3,45.9,58.1,51.7,44.4,100,95,82,30.34,29.98,18,4,23,0.00
2013-4-28,63.5,57.8,54.5,61.5,57.4,54.5,100,99,83,29.98,29.86,18,4,23,0.00
2013-4-29,69.4,59.4,54.7,64.2,56.1,52.8,100,90,58,30.01,29.89,14,2,18,0.00
2013-4-30,79.9,65.7,48.0,63.9,55.6,48.0,100,74,42,30.04,29.92,14,3,18,0.00
2013-5-1,82.9,69.0,52.5,68.8,57.5,52.4,100,71,37,30.13,30.04,16,2,23,0.00
2013-5-2,77.0,67.5,58.6,66.2,60.3,57.7,100,80,56,30.16,30.04,17,3,22,0.00
2013-5-3,75.2,66.2,60.1,66.6,60.4,54.7,100,84,51,30.04,29.86,25,4,32,0.20
2013-5-4,61.2,57.3,53.1,61.2,55.1,49.7,100,93,66,29.98,29.86,17,4,23,0.79
2013-5-5,54.7,53.1,51.3,54.7,53.1,51.3,100,100,100,29.98,29.86,21,6,27,0.67
2013-5-6,66.0,58.9,51.6,62.7,57.1,51.6,100,94,78,29.95,29.83,21,7,32,0.63
2013-5-7,70.9,62.8,56.5,63.8,58.1,54.3,100,87,58,29.98,29.89,15,3,19,0.63
2013-5-8,78.1,65.1,53.2,70.5,58.8,51.0,100,84,41,30.01,29.92,20,2,25,0.63
2013-5-9,81.7,66.7,53.4,69.3,60.3,52.5,100,84,37,30.01,29.89,20,3,25,0.04
2013-5-10,70.2,65.0,60.6,69.8,64.9,60.4,100,100,90,29.92,29.80,17,3,22,0.12
2013-5-11,66.2,56.3,49.3,60.5,50.9,34.6,100,85,48,30.04,29.89,22,6,29,0.12
2013-5-12,60.3,49.7,42.1,39.0,35.0,29.2,76,58,41,30.13,30.04,28,7,35,0.00
2013-5-13,67.5,52.9,36.7,47.3,37.6,32.2,100,60,37,30.22,30.10,26,4,37,0.00
2013-5-14,85.3,66.4,45.9,61.8,51.8,39.6,97,62,39,30.13,29.83,28,6,36,0.00
2013-5-15,88.0,77.3,67.6,63.9,59.9,55.3,87,58,36,29.95,29.86,22,7,29,0.00
2013-5-16,74.3,67.9,62.1,69.1,61.3,58.4,100,80,66,29.98,29.86,21,5,27,0.39
2013-5-17,76.6,66.7,58.8,74.1,65.1,58.8,100,95,68,30.04,29.98,17,2,21,0.00
2013-5-18,77.7,69.4,63.7,73.6,67.9,63.7,100,96,75,30.04,29.95,17,3,22,0.00
2013-5-19,86.5,74.1,60.3,77.5,68.8,60.3,100,86,56,29.98,29.83,13,2,17,0.00
2013-5-20,84.9,76.6,67.3,77.9,71.7,67.3,100,86,60,29.98,29.86,21,5,27,0.00
2013-5-21,82.4,72.4,63.0,74.3,67.9,62.7,100,88,53,29.98,29.80,41,6,53,0.31
2013-5-22,77.9,70.1,63.7,72.2,65.6,59.0,100,87,54,29.80,29.75,22,5,29,0.31
2013-5-23,69.4,62.7,51.6,65.5,59.8,51.6,100,91,65,30.16,29.80,25,6,35,0.31
2013-5-24,68.5,53.6,43.0,53.1,47.3,41.5,100,83,41,30.37,30.16,17,5,22,0.00
2013-5-25,68.2,56.5,42.3,57.7,48.7,42.3,100,78,42,30.37,30.19,14,2,18,0.04
2013-5-26,71.2,60.0,50.9,62.1,55.3,50.9,100,87,56,30.28,30.13,15,3,19,0.12
2013-5-27,84.4,75.2,60.1,68.1,63.9,59.0,100,71,48,30.10,29.92,32,7,41,0.00
2013-5-28,85.8,79.4,64.6,72.1,66.5,64.0,100,66,53,30.01,29.89,38,8,48,0.00
2013-5-29,87.3,77.7,65.8,69.6,64.9,60.4,97,68,41,30.07,29.98,22,5,29,0.00
2013-5-30,83.3,75.9,70.9,71.5,69.3,68.3,92,81,65,30.07,29.98,22,4,28,0.00
2013-5-31,81.1,74.7,72.9,77.4,74.8,69.1,100,100,100,29.98,29.89,24,8,30,0.00
2013-6-1,75.7,69.6,63.9,75.4,69.4,63.9,100,99,85,29.95,29.80,40,6,51,0.79
2013-6-2,75.6,68.9,62.2,68.2,64.1,58.5,100,86,60,29.98,29.83,20,5,25,0.00
2013-6-3,71.2,62.7,56.5,65.5,56.8,51.3,100,83,54,30.07,29.95,17,3,22,0.00
2013-6-4,75.0,63.6,50.7,64.0,57.0,50.5,100,82,54,30.13,30.01,17,3,22,0.00
2013-6-5,80.2,69.9,57.4,68.6,61.6,57.0,100,78,53,30.04,29.86,14,3,21,0.00
2013-6-6,81.0,71.0,64.9,74.3,67.1,61.1,100,89,54,29.86,29.78,13,2,17,0.63
2013-6-7,76.6,67.3,62.2,70.0,64.3,60.3,100,91,60,29.89,29.80,14,2,18,0.00
2013-6-8,82.2,68.3,62.6,72.5,65.3,58.6,100,92,51,30.01,29.86,10,1,16,0.00
2013-6-9,81.3,67.6,63.0,73.6,66.1,59.2,100,96,51,30.01,29.83,16,1,22,0.00
2013-6-10,79.2,71.1,64.6,73.0,67.3,63.2,100,89,63,29.89,29.80,21,4,27,0.04
2013-6-11,87.1,74.3,62.1,74.5,66.5,62.1,100,80,49,30.01,29.89,17,3,21,0.00
2013-6-12,93.0,82.8,72.0,81.2,75.9,70.7,100,82,51,29.95,29.75,29,5,38,0.00
2013-6-13,82.9,80.0,66.9,76.6,69.0,51.2,82,70,42,29.98,29.72,20,7,28,0.00
2013-6-14,82.8,68.2,57.9,68.2,61.8,54.5,100,82,48,30.07,29.95,14,1,18,0.00
2013-6-15,87.4,74.1,59.7,71.6,63.6,59.5,100,74,41,30.10,29.95,17,2,22,0.00
2013-6-16,79.0,73.0,68.9,75.6,70.8,64.7,100,93,66,30.04,29.95,16,2,20,0.04
2013-6-17,86.9,75.4,65.5,79.1,71.2,65.5,100,88,63,29.98,29.86,20,2,26,0.98
2013-6-18,86.7,72.6,64.2,73.9,66.8,59.0,100,85,51,29.98,29.86,37,3,47,1.34
2013-6-19,80.2,71.1,63.5,73.7,66.5,62.9,100,87,58,30.10,29.98,16,3,20,0.00
2013-6-20,86.0,74.5,61.9,74.8,65.2,58.9,100,76,44,30.19,30.10,14,2,18,0.00
2013-6-21,89.6,77.5,63.0,77.4,69.1,63.0,100,79,49,30.19,30.07,14,2,18,0.00
2013-6-22,91.2,77.6,68.4,81.6,72.5,67.4,100,87,49,30.16,30.04,17,3,23,0.00
2013-6-23,89.6,76.3,66.2,79.5,71.9,66.2,100,88,51,30.13,30.04,18,3,26,0.00
2013-6-24,79.0,73.6,70.0,78.6,73.6,70.0,100,100,95,30.16,30.04,14,2,18,0.00
2013-6-25,92.5,79.3,66.9,81.7,74.0,66.9,100,86,51,30.07,29.89,17,4,23,0.00
2013-6-26,83.8,71.6,65.8,82.2,71.1,65.8,100,98,70,30.01,29.75,53,4,67,3.15
2013-6-27,90.7,78.5,69.1,82.9,74.1,69.1,100,88,53,29.83,29.75,20,3,30,0.00
2013-6-28,89.4,80.5,72.0,77.5,66.0,55.3,100,65,34,29.78,29.63,28,7,37,0.00
2013-6-29,83.7,71.9,65.3,71.9,67.0,62.7,100,86,51,29.69,29.60,25,3,32,0.35
2013-6-30,78.6,68.6,64.8,72.9,67.9,64.8,100,98,68,29.83,29.66,23,2,30,0.63
2013-7-1,73.0,67.8,64.0,72.9,67.8,64.0,100,100,100,29.92,29.83,18,3,23,0.08
2013-7-2,78.8,70.4,65.3,73.4,68.2,65.3,100,94,71,30.01,29.89,17,3,21,0.00
2013-7-3,82.2,70.3,61.0,73.2,66.3,61.0,100,89,58,30.10,30.01,19,2,24,0.00
2013-7-4,73.4,68.6,63.3,73.4,68.6,63.3,100,100,100,30.13,30.07,12,1,16,0.00
2013-7-5,79.7,71.6,64.2,76.3,70.4,64.2,100,96,78,30.13,30.07,11,2,14,0.00
2013-7-6,75.6,70.5,67.1,73.6,69.9,67.1,100,98,82,30.13,30.04,15,2,19,0.08
2013-7-7,86.7,74.7,65.7,76.8,69.3,65.6,100,85,51,30.10,30.04,12,2,17,0.04
2013-7-8,91.0,78.2,66.7,79.5,72.4,66.7,100,84,54,30.16,30.04,19,3,24,0.00
2013-7-9,92.1,82.1,73.8,80.8,76.5,73.6,100,85,56,30.10,29.98,17,3,22,0.00
2013-7-10,89.6,78.6,68.7,84.1,76.7,68.5,100,95,63,30.04,29.83,42,2,59,0.24
2013-7-11,80.2,73.6,66.2,73.4,64.8,58.6,100,77,51,30.04,29.95,18,5,30,0.00
2013-7-12,80.8,70.6,60.1,69.2,61.9,57.4,100,77,46,30.10,30.04,18,4,23,0.00
2013-7-13,82.6,68.9,63.7,71.0,65.8,63.7,100,91,58,30.10,30.04,23,2,30,0.00
2013-7-14,88.0,78.0,65.8,79.3,71.6,65.8,100,83,56,30.19,30.10,16,3,21,0.04
2013-7-15,88.3,79.9,70.5,81.5,73.4,70.2,100,83,58,30.28,30.19,20,2,26,0.00
2013-7-16,90.5,76.5,69.8,84.9,73.7,69.3,100,93,54,30.34,30.28,10,1,13,0.00
2013-7-17,92.7,87.9,78.3,81.5,76.3,70.7,100,70,53,30.34,30.19,14,4,18,0.00
2013-7-18,78.1,75.1,73.0,78.1,75.1,73.1,100,100,100,30.22,30.16,0,0,0,0.00
2013-7-20,73.9,72.3,71.1,73.9,72.3,70.9,100,100,100,29.95,29.89,13,3,18,0.04
2013-7-21,88.7,72.3,66.6,81.3,70.1,66.5,100,94,49,29.98,29.86,18,1,23,0.91
2013-7-22,86.2,74.8,68.9,81.5,73.1,68.9,100,95,66,29.95,29.80,20,2,26,0.63
2013-7-23,91.4,78.5,68.2,84.3,73.9,68.2,100,87,58,29.86,29.78,14,3,20,0.00
2013-7-24,77.7,69.9,61.7,72.7,62.8,58.2,100,80,53,30.01,29.86,17,4,21,0.00
2013-7-25,64.0,62.9,61.9,64.0,62.9,61.9,100,100,100,30.01,30.01,0,0,0,0.00
2013-7-26,83.3,77.9,70.2,69.4,63.9,60.2,95,64,49,30.07,29.98,14,3,18,0.00
2013-7-27,79.7,67.8,64.4,73.2,64.6,53.4,100,92,51,29.98,29.86,26,4,32,0.43
2013-7-28,76.6,60.1,50.7,61.9,53.1,48.8,100,81,39,30.07,29.95,17,2,23,0.00
2013-7-29,82.8,68.2,56.7,66.4,58.8,53.0,100,77,37,30.19,30.07,17,3,28,0.00
2013-7-30,78.8,67.8,61.3,71.2,65.6,61.3,100,94,63,30.22,30.10,14,1,18,0.12
2013-7-31,74.7,69.6,65.8,74.7,69.6,65.8,100,100,100,30.10,29.95,10,1,13,0.00
2013-8-1,85.8,74.6,66.6,73.8,66.9,57.8,100,80,41,30.04,29.95,25,4,32,0.16
2013-8-2,76.6,66.0,59.4,71.1,64.6,59.4,100,96,80,30.01,29.95,10,1,13,0.00
2013-8-3,89.6,75.8,68.0,78.6,71.2,67.6,100,87,53,30.07,29.95,15,2,21,0.08
2013-8-4,78.3,69.8,59.9,70.9,61.3,53.7,100,77,44,30.16,30.07,17,3,22,0.00
2013-8-5,82.4,71.0,56.1,66.2,60.4,56.1,100,73,46,30.13,29.95,17,2,22,0.00
2013-8-6,82.9,74.9,68.5,80.2,73.7,66.8,100,96,80,29.95,29.89,14,2,17,0.00
2013-8-7,85.1,75.3,69.4,78.6,73.9,69.4,100,96,73,29.95,29.89,12,1,17,0.00
2013-8-8,90.3,79.7,71.6,82.9,75.9,71.6,100,90,58,29.98,29.86,14,2,18,0.00
2013-8-9,88.5,77.3,70.9,80.0,73.5,66.9,100,90,49,30.04,29.92,14,2,18,0.00
2013-8-10,76.1,73.4,70.7,76.1,73.4,70.7,100,100,100,30.07,30.04,7,0,10,0.00
2013-8-14,72.7,65.7,57.4,57.6,53.2,50.5,100,66,48,30.16,30.13,17,4,22,0.00
2013-8-15,72.3,58.4,48.2,64.0,54.9,48.2,100,90,56,30.16,30.07,14,2,18,0.00
2013-8-16,77.9,66.7,53.6,64.8,58.7,53.6,100,79,48,30.16,30.10,20,3,26,0.00
2013-8-17,81.5,69.2,59.9,67.6,62.6,59.3,100,82,51,30.19,30.10,14,2,18,0.00
2013-8-18,83.1,71.0,58.6,72.9,62.9,55.9,100,80,41,30.19,30.07,14,3,18,0.00
2013-8-19,87.3,72.7,58.3,76.1,62.9,57.0,100,76,37,30.16,30.04,7,2,9,0.00
2013-8-22,91.4,84.1,72.0,77.1,71.0,66.1,100,67,46,30.13,30.01,20,4,26,0.00
2013-8-23,86.9,76.3,68.7,75.8,69.5,64.0,100,83,49,30.13,30.04,18,4,23,0.00
2013-8-24,85.5,71.1,63.5,69.1,63.6,35.8,100,83,19,30.25,30.13,9,0,11,0.04
2013-8-25,90.0,74.2,57.6,64.4,54.0,29.6,100,61,14,30.31,30.19,14,2,18,0.00
2013-8-26,91.2,77.6,65.7,74.8,67.7,60.4,100,76,37,30.25,30.10,14,2,18,0.00
2013-8-27,87.6,76.6,70.9,77.4,73.2,69.7,100,91,58,30.13,30.01,10,0,13,0.00
2013-8-28,95.4,81.2,72.9,77.0,70.0,57.2,100,76,29,30.01,29.95,26,4,32,0.00
2013-8-29,93.9,82.6,72.1,72.2,63.4,55.5,100,57,29,30.01,29.98,14,2,18,0.00
2013-8-30,93.4,81.1,68.4,72.0,67.0,57.7,100,68,31,29.98,29.86,14,1,18,0.00
2013-8-31,96.8,82.4,68.5,75.0,70.6,61.4,100,70,34,29.92,29.75,32,2,40,0.59
2013-9-1,87.4,72.9,68.0,77.1,70.8,68.0,100,94,68,29.89,29.75,25,3,32,0.31
2013-9-7,74.3,72.8,71.2,73.3,72.4,71.1,100,99,90,30.00,30.00,0,0,0,0.00
2013-9-8,89.2,75.8,67.2,78.6,70.0,59.0,100,85,41,30.02,29.95,9,1,14,0.04
2013-9-9,94.1,78.8,65.8,80.4,71.6,65.8,100,82,44,30.05,29.94,11,2,18,0.00
2013-9-10,94.8,79.2,70.7,84.1,76.2,70.6,100,92,57,30.15,30.02,14,2,24,0.00
2013-9-11,89.9,75.6,70.1,82.7,74.2,70.1,100,96,62,30.18,30.07,6,0,9,0.00
2013-9-12,80.4,74.3,69.0,77.8,73.0,61.8,100,96,76,30.09,29.93,13,2,21,0.00
2013-9-13,71.7,63.0,50.0,64.7,56.1,49.8,100,81,52,30.13,30.01,16,4,24,0.00
2013-9-14,73.5,57.7,44.2,58.7,49.7,39.8,100,80,31,30.23,30.09,11,2,18,0.00
2013-9-15,80.0,61.8,43.5,67.6,56.0,43.5,100,85,48,30.18,30.05,11,1,14,0.00
2013-9-16,71.7,65.5,56.8,68.2,64.6,56.8,100,97,84,30.29,30.10,16,4,21,0.00
2013-9-17,76.4,62.6,52.8,66.1,57.8,52.8,100,87,52,30.33,30.15,13,3,19,0.00
2013-9-18,77.7,64.9,55.4,76.9,64.8,55.3,100,100,93,30.19,30.06,9,1,14,0.00
2013-9-19,83.3,71.5,65.3,81.6,71.4,65.2,100,100,88,30.16,29.97,13,2,18,0.98
2013-9-20,81.8,71.1,66.9,79.1,70.9,66.9,100,99,86,30.00,29.85,9,1,21,0.28
2013-9-21,67.2,61.5,56.8,67.2,61.5,56.8,100,100,100,29.90,29.80,11,3,16,0.28
2013-9-22,72.5,64.2,51.4,62.5,57.1,51.4,100,80,55,30.06,29.97,9,3,14,0.00
2013-9-23,73.2,57.9,43.8,64.0,53.5,43.8,100,88,52,30.13,30.03,11,2,19,0.00
2013-9-24,79.8,63.0,48.7,70.1,59.8,48.7,100,91,60,30.09,29.88,9,2,13,0.00
2013-9-25,80.2,68.0,59.5,72.4,64.7,59.5,100,91,60,29.96,29.86,11,2,16,0.00
2013-9-26,80.9,64.9,51.2,68.9,57.8,43.8,100,83,28,30.11,29.96,11,2,13,0.00
2013-9-27,82.9,64.9,50.0,70.0,57.6,44.4,100,83,28,30.20,30.08,11,1,16,0.00
2013-9-28,83.6,66.1,50.9,70.1,60.1,50.8,100,84,48,30.19,30.05,11,2,18,0.00
2013-9-29,64.4,61.4,56.6,64.3,61.4,56.6,100,100,100,30.08,30.01,9,1,16,0.35
2013-9-30,73.4,65.0,61.7,73.2,64.9,61.6,100,100,98,30.04,29.97,6,0,13,0.04
2013-10-1,81.1,67.3,58.1,73.0,65.4,58.0,100,94,64,30.11,30.02,8,1,13,0.00
2013-10-2,78.4,70.1,62.0,78.2,70.1,62.0,100,100,96,30.13,30.05,6,0,9,0.00
2013-10-3,82.7,71.5,66.7,78.7,69.7,66.7,100,95,72,30.13,29.99,11,1,14,0.59
2013-10-4,84.7,73.0,64.2,79.1,71.4,64.2,100,95,74,30.10,30.02,11,2,13,0.00
2013-10-5,76.2,70.6,66.5,76.2,70.6,66.5,100,100,100,30.07,29.92,11,1,18,0.43
2013-10-6,68.3,60.3,48.3,68.3,60.0,48.3,100,99,86,29.94,29.81,13,2,19,2.60
2013-10-7,64.5,53.5,46.9,55.2,50.5,46.9,100,91,64,30.21,29.91,13,3,21,0.00
2013-10-8,70.1,54.4,41.7,58.4,49.3,41.7,100,86,52,30.30,30.19,13,3,19,0.00
2013-10-9,75.9,57.5,42.2,63.3,52.8,42.2,100,87,52,30.27,30.15,6,1,11,0.00
2013-10-10,77.9,60.1,46.9,65.8,55.2,46.9,100,87,50,30.23,30.09,8,1,13,0.00
2013-10-11,79.8,60.0,44.7,64.5,51.7,38.4,100,81,24,30.16,30.02,6,0,8,0.00
2013-10-12,80.2,62.4,47.4,69.4,57.9,47.4,100,88,52,30.17,30.03,8,1,13,0.00
2013-10-13,75.5,64.2,51.6,65.6,57.5,44.7,100,82,38,30.36,30.16,9,2,14,0.00
2013-10-14,71.2,56.7,44.2,58.0,51.6,44.2,100,86,52,30.40,30.19,11,2,16,0.00
2013-10-15,68.9,60.6,52.1,68.8,60.6,52.1,100,100,100,30.21,29.98,9,1,16,0.04
2013-10-16,64.7,58.3,46.2,64.7,56.9,46.2,100,95,81,30.04,29.92,16,2,21,0.24
2013-10-17,59.0,48.7,41.0,58.0,48.3,40.9,100,99,88,30.04,29.96,13,1,18,0.12
2013-10-18,68.5,53.8,42.0,60.0,49.6,42.0,100,88,55,30.09,29.95,9,2,18,0.00
2013-10-19,52.8,47.6,39.9,52.8,47.0,39.9,100,98,81,30.07,29.91,13,2,21,0.24
2013-10-20,64.7,49.9,39.3,53.4,45.9,39.3,100,88,57,30.09,29.99,14,3,21,0.00
2013-10-21,65.8,52.5,40.4,58.0,50.0,40.4,100,92,67,30.06,29.95,11,4,23,0.00
2013-10-22,55.0,45.4,32.3,48.5,40.5,32.3,100,85,55,30.12,29.85,9,1,14,0.00
2013-10-23,50.3,43.7,38.4,47.1,42.0,38.4,100,94,69,30.14,29.82,16,6,28,0.00
2013-10-24,41.9,38.3,33.4,41.8,37.9,32.8,100,98,79,30.39,30.11,23,3,28,0.00
2013-10-25,51.9,38.6,29.3,40.5,33.0,27.0,100,84,45,30.54,30.36,11,2,16,0.00
2013-10-26,59.1,43.6,27.6,49.7,38.9,27.6,100,85,62,30.36,29.99,13,3,21,0.00
2013-10-27,61.3,43.6,28.9,47.9,37.9,28.9,100,85,38,30.18,30.08,8,0,13,0.00
2013-10-28,65.1,44.3,29.1,51.0,37.5,29.1,100,83,31,30.35,30.14,9,1,13,0.00
2013-10-29,55.5,43.3,35.4,55.5,43.2,35.4,100,100,100,30.38,30.20,6,0,6,0.00
2013-10-31,63.6,63.6,63.6,63.6,63.6,63.6,100,100,100,29.53,29.53,8,8,9,0.00
2013-11-1,68.1,58.9,47.8,63.6,55.6,47.8,100,90,55,29.85,29.53,13,5,18,0.00
2013-11-2,57.2,47.3,38.8,53.1,46.4,38.8,100,97,76,29.99,29.85,14,2,18,0.00
2013-11-7,52.5,43.3,34.5,42.8,35.7,24.9,100,78,38,30.38,30.26,13,4,23,0.00
2013-11-8,55.7,41.2,29.3,43.7,34.9,29.3,100,82,40,30.47,30.29,11,1,13,0.00
2013-11-9,64.4,49.9,33.6,52.3,43.6,33.6,100,81,55,30.29,30.08,13,4,24,0.00
2013-11-10,56.8,45.9,32.0,51.0,39.4,30.0,100,82,40,30.42,30.21,11,3,19,0.00
2013-11-11,62.7,44.1,29.1,51.6,37.1,29.1,100,82,31,30.39,30.14,13,3,28,0.00
2013-11-12,40.6,32.7,25.5,36.8,30.0,25.5,100,91,69,30.70,30.35,16,4,21,0.00
2013-11-13,42.6,30.0,19.5,34.0,25.1,18.6,100,85,43,30.74,30.48,13,1,18,0.00
2013-11-14,56.1,41.8,25.7,34.8,25.5,18.8,100,60,28,30.49,30.16,16,5,24,0.00
2013-11-15,52.1,44.7,32.3,48.1,36.5,20.4,100,75,43,30.21,30.09,9,2,14,0.00
2013-11-16,61.8,55.0,47.3,61.8,55.0,47.2,100,100,100,30.12,29.86,13,5,26,0.00
2013-11-17,69.0,62.0,51.6,69.0,60.4,47.1,100,95,60,29.88,29.49,23,10,37,1.42
2013-11-18,55.5,47.5,36.6,50.3,41.7,32.2,100,82,50,30.29,29.91,24,8,32,0.00
2013-11-19,46.2,35.9,27.5,40.3,34.3,27.5,100,95,72,30.41,30.29,9,2,18,0.00
2013-11-20,54.8,40.4,28.2,42.8,36.3,28.2,100,87,55,30.36,30.21,9,2,16,0.00
2013-11-21,58.8,51.8,44.7,56.2,49.4,40.6,100,92,72,30.30,30.20,11,1,18,0.08
2013-11-22,53.6,48.0,37.9,53.5,48.0,37.9,100,100,100,30.47,30.21,13,5,18,0.04
2013-11-23,39.3,31.2,21.3,37.7,27.4,15.8,100,86,62,30.71,30.47,18,7,28,0.00
2013-11-24,32.0,22.4,14.3,23.6,18.3,14.3,100,85,55,30.81,30.59,9,3,13,0.00
2013-11-25,37.5,29.8,20.1,34.6,25.6,20.1,100,86,50,30.59,30.24,13,3,24,0.00
2013-11-26,37.0,34.5,32.3,37.0,34.1,32.3,100,98,91,30.27,30.02,13,2,21,0.00
2013-11-27,33.2,24.8,17.0,33.2,22.2,15.2,100,90,69,30.41,30.08,18,8,31,0.00
2013-11-28,39.0,25.8,15.6,26.0,21.1,15.6,100,85,45,30.52,30.32,14,3,24,0.00
2013-11-29,44.7,28.4,16.1,34.0,25.6,16.1,100,91,64,30.69,30.52,9,1,13,0.00
2013-11-30,54.8,36.9,22.8,40.5,30.8,22.8,100,83,36,30.55,30.21,14,2,19,0.00
2013-12-1,57.7,45.4,34.7,46.5,39.2,31.9,100,80,62,30.22,30.00,9,2,14,0.00
2013-12-2,55.5,43.0,32.9,50.8,41.9,32.8,100,96,74,30.02,29.78,8,1,9,0.00
2013-12-3,53.9,44.8,33.2,53.9,44.8,33.2,100,100,100,29.88,29.78,8,1,11,0.00
2013-12-4,65.8,55.5,42.2,65.8,55.5,42.2,100,100,100,29.86,29.65,13,2,18,0.00
2013-12-5,66.0,43.1,29.8,66.0,43.1,29.8,100,100,100,30.27,29.77,18,6,24,0.24
2013-12-6,30.2,25.4,23.9,30.2,25.4,23.9,100,100,100,30.49,30.21,0,0,0,0.00
2013-12-7,29.3,19.7,8.7,29.1,19.7,8.7,100,100,100,30.71,30.49,0,0,0,0.00
2013-12-8,32.1,25.3,20.1,32.1,25.3,20.1,100,100,100,30.59,30.09,0,0,0,0.00
2013-12-9,32.3,27.4,21.9,32.3,27.4,21.9,100,100,96,30.31,30.09,0,0,0,0.00
2013-12-10,33.0,21.9,12.0,25.0,19.4,12.0,100,91,55,30.45,30.25,0,0,0,0.04
2013-12-11,38.8,20.0,6.0,35.9,19.8,6.0,100,99,81,30.63,30.38,18,4,28,0.04
2013-12-12,29.1,16.7,0.6,16.4,9.4,0.6,100,77,36,30.69,30.41,9,4,14,0.00
2013-12-13,41.9,29.9,18.8,36.3,26.1,15.9,100,87,55,30.41,30.14,9,3,16,0.08
2013-12-14,37.9,34.9,30.9,37.9,34.9,30.9,100,100,100,30.17,29.77,16,4,24,1.06
2013-12-15,30.9,27.9,25.1,30.9,27.9,25.1,100,100,98,30.21,30.03,0,0,0,0.00
2013-12-16,44.0,34.6,28.7,42.1,34.4,28.7,100,99,91,30.18,30.04,11,1,13,0.00
2013-12-17,37.2,29.9,27.3,37.2,29.9,27.3,100,100,100,30.27,30.05,16,4,21,0.00
2013-12-18,42.0,32.9,21.0,29.8,25.0,19.5,100,76,43,30.36,30.07,14,4,19,0.00
2013-12-19,55.9,48.9,39.7,54.8,44.5,29.6,100,85,67,30.10,29.96,14,7,29,0.00
2013-12-20,62.0,59.0,56.1,62.0,58.3,52.7,100,98,88,29.93,29.80,16,9,28,0.04
2013-12-21,65.6,55.4,49.4,65.6,55.4,49.4,100,100,100,29.83,29.50,18,2,23,0.51
2013-12-22,62.0,43.7,34.1,62.0,43.7,34.1,100,100,100,30.17,29.47,18,8,32,0.00
2013-12-23,34.1,28.7,23.9,34.1,28.7,23.9,100,100,100,30.52,30.17,14,1,19,0.00
2013-12-24,24.0,17.0,8.9,24.0,14.9,8.9,100,92,70,30.69,30.47,0,0,0,0.00
2013-12-25,33.9,27.1,18.3,23.5,16.5,10.2,73,64,51,30.47,30.24,13,2,16,0.00
2013-12-26,43.3,33.9,26.6,28.1,23.9,19.5,94,68,44,30.38,30.24,18,4,24,0.00
2013-12-27,51.0,36.6,26.4,30.0,26.3,20.7,88,68,43,31.51,30.29,11,3,14,0.00
2013-12-28,51.9,41.0,33.6,32.1,28.1,23.1,83,62,41,30.32,30.10,9,3,18,0.00
2013-12-29,49.1,37.6,28.5,44.2,34.9,25.5,100,91,52,31.74,29.88,21,4,29,0.20
2013-12-30,28.9,24.3,19.9,28.5,15.7,9.8,100,70,49,30.40,24.17,0,0,0,0.00
2013-12-31,39.2,29.1,20.6,21.7,16.4,12.8,78,60,38,31.02,30.28,11,2,21,0.00
2014-1-1,48.7,36.7,27.8,30.5,25.0,20.3,84,64,43,30.75,30.13,13,3,18,0.00
2014-1-2,37.9,24.2,11.6,36.3,21.8,6.1,100,91,75,31.30,30.18,14,6,31,0.08